Prestwick, United Kingdom

5:37 AM BST on April 27, 2018 (GMT +0100)
Prestwick

Weather History for EGPK - November, 2011

Change the Weather History Date:

Sunday, November 6, 2011

  Actual Average Record
Temperature  
Mean Temperature 43 °F -  
Max Temperature 53 °F 47 °F 59 °F (2015)
Min Temperature 33 °F 37 °F 32 °F (1998)
Degree Days  
Heating Degree Days 22    
Moisture  
Dew Point 37 °F    
Average Humidity 83    
Maximum Humidity 93    
Minimum Humidity 62    
Precipitation  
Precipitation 0.00 in - - ()
Sea Level Pressure  
Sea Level Pressure 30.32 in    
Wind  
Wind Speed 4 mph ()    
Max Wind Speed 8 mph    
Max Gust Speed -    
Visibility 6.0 miles    
Events      
Averages and records for this station are not official NWS values.
T = Trace of Precipitation, MM = Missing Value Source: Averaged Metar Reports

Daily Weather History Graph

Daily Weather History Graph

Search for Another Location

Airport or City:

Astronomy

Nov. 06, 2011 Rise Set
Actual Time 7:33 AM GMT 4:29 PM GMT
Civil Twilight 6:53 AM GMT 5:09 PM GMT
Nautical Twilight 6:09 AM GMT 5:53 PM GMT
Astronomical Twilight 5:26 AM GMT 6:36 PM GMT
Moon 2:39 PM GMT (11/6) 2:49 AM GMT (11/6)
Length of Visible Light 10h 16m
Length of Day
8h 56m
Waxing Gibbous, 84% of the Moon is Illuminated
Nov 6
Waxing Gibbous
Nov 10
Full
Nov 18
Last Quarter
Nov 25
New
Dec 2
First Quarter

Hourly Weather History & Observations

Time (GMT) Temp. Windchill Dew Point Humidity Pressure Visibility Wind Dir Wind Speed Gust Speed Precip Events Conditions
12:50 AM 35.6 °F - 33.8 °F 93% 30.18 in 5.0 mi Calm Calm - N/A   Partly Cloudy
1:50 AM 35.6 °F 32.8 °F 33.8 °F 93% 30.18 in 5.0 mi ESE 3.5 mph - N/A   Partly Cloudy
2:50 AM 35.6 °F 31.7 °F 33.8 °F 93% 30.21 in - East 4.6 mph - N/A   Clear
3:50 AM 35.6 °F - 33.8 °F 93% 30.21 in - East 2.3 mph - N/A   Clear
4:50 AM 35.6 °F 32.8 °F 33.8 °F 93% 30.24 in - East 3.5 mph - N/A   Clear
5:50 AM 33.8 °F 30.8 °F 32.0 °F 93% 30.27 in 6.2 mi East 3.5 mph - N/A   Partly Cloudy
6:20 AM 33.8 °F 30.8 °F 32.0 °F 93% 30.27 in 6.2 mi East 3.5 mph - N/A   Partly Cloudy
6:50 AM 35.6 °F 30.7 °F 33.8 °F 93% 30.27 in 6.2 mi East 5.8 mph - N/A   Partly Cloudy
7:20 AM 35.6 °F 32.8 °F 33.8 °F 93% 30.27 in 6.2 mi East 3.5 mph - N/A   Partly Cloudy
7:50 AM 35.6 °F - 33.8 °F 93% 30.30 in 6.2 mi East 2.3 mph - N/A   Partly Cloudy
8:20 AM 35.6 °F 31.7 °F 33.8 °F 93% 30.30 in - East 4.6 mph - N/A   Clear
8:50 AM 37.4 °F 34.9 °F 35.6 °F 93% 30.30 in - East 3.5 mph - N/A   Clear
9:20 AM 41.0 °F 39.0 °F 37.4 °F 87% 30.30 in - East 3.5 mph - N/A   Clear
9:50 AM 42.8 °F 40.1 °F 39.2 °F 87% 30.33 in - ESE 4.6 mph - N/A   Clear
10:20 AM 44.6 °F 41.4 °F 41.0 °F 87% 30.33 in - SE 5.8 mph - N/A   Clear
10:50 AM 46.4 °F 43.5 °F 41.0 °F 81% 30.33 in - SE 5.8 mph - N/A   Clear
11:20 AM 50.0 °F - 42.8 °F 76% 30.33 in - ESE 4.6 mph - N/A   Clear
11:50 AM 51.8 °F - 42.8 °F 71% 30.33 in - South 5.8 mph - N/A   Clear
12:20 PM 51.8 °F - 42.8 °F 71% 30.33 in - South 8.1 mph - N/A   Clear
12:50 PM 53.6 °F - 42.8 °F 67% 30.33 in 6.2 mi South 5.8 mph - N/A   Partly Cloudy
1:20 PM 53.6 °F - 41.0 °F 62% 30.33 in 6.2 mi SW 6.9 mph - N/A   Partly Cloudy
1:50 PM 53.6 °F - 41.0 °F 62% 30.33 in 6.2 mi SSW 5.8 mph - N/A   Partly Cloudy
2:20 PM 53.6 °F - 41.0 °F 62% 30.33 in 6.2 mi SSW 6.9 mph - N/A   Partly Cloudy
2:50 PM 53.6 °F - 42.8 °F 67% 30.33 in - South 3.5 mph - N/A   Clear
3:20 PM 51.8 °F - 41.0 °F 67% 30.33 in - WSW 8.1 mph - N/A   Clear
3:50 PM 51.8 °F - 41.0 °F 67% 30.33 in - SW 4.6 mph - N/A   Clear
4:20 PM 48.2 °F - 39.2 °F 71% 30.33 in - Variable 2.3 mph - N/A   Clear
4:50 PM 46.4 °F - 39.2 °F 76% 30.33 in - SSE 2.3 mph - N/A   Clear
5:20 PM 42.8 °F 40.1 °F 37.4 °F 81% 30.36 in - SE 4.6 mph - N/A   Clear
5:50 PM 41.0 °F 39.0 °F 35.6 °F 81% 30.36 in - ESE 3.5 mph - N/A   Clear
6:20 PM 39.2 °F 35.9 °F 35.6 °F 87% 30.36 in - ESE 4.6 mph - N/A   Clear
6:50 PM 39.2 °F 35.9 °F 35.6 °F 87% 30.36 in - ESE 4.6 mph - N/A   Clear
7:20 PM 39.2 °F 37.0 °F 33.8 °F 81% 30.36 in - East 3.5 mph - N/A   Clear
7:50 PM 37.4 °F 33.8 °F 33.8 °F 87% 30.36 in - East 4.6 mph - N/A   Clear
8:20 PM 37.4 °F 32.1 °F 35.6 °F 93% 30.36 in - East 6.9 mph - N/A   Clear
8:50 PM 37.4 °F 32.1 °F 35.6 °F 93% 30.36 in - East 6.9 mph - N/A   Clear
9:20 PM 37.4 °F 33.8 °F 33.8 °F 87% 30.36 in - SE 4.6 mph - N/A   Clear
9:50 PM 37.4 °F 32.8 °F 33.8 °F 87% 30.39 in - East 5.8 mph - N/A   Clear
10:20 PM 35.6 °F 30.7 °F 33.8 °F 93% 30.39 in - ESE 5.8 mph - N/A   Clear
10:50 PM 35.6 °F 29.9 °F 33.8 °F 93% 30.36 in - East 6.9 mph - N/A   Clear
11:20 PM 37.4 °F 33.8 °F 33.8 °F 87% 30.36 in - East 4.6 mph - N/A   Clear
11:50 PM 37.4 °F - 33.8 °F 87% 30.36 in - Calm Calm - N/A   Clear